Le nostre stazioni meteo in Italia

Pubblicità
Il mio iltempo24.it
Lyon/Bron, Francia (7480): Temperatura & dewpoint: 13.06.2019 01:00:00 - 19.06.2019 01:00:00 (CEST)Lyon/Bron, Francia (7480): Temperatura 5cm: 13.06.2019 01:00:00 - 19.06.2019 01:00:00 (CEST)Lyon/Bron, Francia (7480): Temperatura -20cm: 13.06.2019 01:00:00 - 19.06.2019 01:00:00 (CEST)Lyon/Bron, Francia (7480): velocità del vento & gusts: 13.06.2019 01:00:00 - 19.06.2019 01:00:00 (CEST)Lyon/Bron, Francia (7480): direzione del vento: 13.06.2019 01:00:00 - 19.06.2019 01:00:00 (CEST)Lyon/Bron, Francia (7480): reduced air pressure: 13.06.2019 01:00:00 - 19.06.2019 01:00:00 (CEST)Lyon/Bron, Francia (7480): visibility: 13.06.2019 01:00:00 - 19.06.2019 01:00:00 (CEST)Lyon/Bron, Francia (7480): ore di luce: 13.06.2019 01:00:00 - 19.06.2019 01:00:00 (CEST)Lyon/Bron, Francia (7480): precipitazioni: 13.06.2019 01:00:00 - 19.06.2019 01:00:00 (CEST)
Data & Tempo tt [°C] td [°C] tt 5cm [°C] tt -20cm [°C] ff [km/h] ff [kn] fx [km/h] fx [kn] dd ppp [hPa] vv [km] sd [min] rr [mm]
19.06.2019 01:00:00 22,5 8,2 20,8 22,4 17 9 32 18 S 1011,8 56 0 0,0
19.06.2019 00:00:00 22,7 9,5 20,7 22,5 19 10 40 22 S 1012,0 56 0 0,0
18.06.2019 23:00:00 23,4 9,8 21,2 22,7 17 9 26 14 S 1012,1 53 0 0,0
18.06.2019 22:00:00 24,9 8,8 22,6 22,7 16 9 33 18 S 1011,4 56 0 0,0
18.06.2019 21:00:00 26,6 10,7 24,9 22,8 15 8 31 17 S 1010,9 37 19 0,0
18.06.2019 20:00:00 27,6 10,8 26,5 22,7 16 9 36 20 S 1010,8 32 0 0,0
18.06.2019 19:00:00 28,5 12,0 28,4 22,7 19 11 39 21 S 1010,8 42 7 0,0
18.06.2019 18:00:00 29,5 10,6 29,5 22,6 21 12 41 22 S 1010,9 35 11 0,0
18.06.2019 17:00:00 29,2 5,9 29,6 22,4 26 14 48 26 S 1011,2 35 4 0,0
18.06.2019 16:00:00 29,9 7,7 31,2 22,1 29 15 46 25 S 1011,5 27 10 0,0
18.06.2019 15:00:00 29,8 11,3 32,2 21,7 28 15 50 27 S 1011,8 22 41 0,0
18.06.2019 14:00:00 30,1 13,0 32,5 21,4 22 12 40 22 S 1012,3 34 54 0,0
18.06.2019 13:00:00 28,7 14,9 29,9 21,2 15 8 29 15 S 1013,0 20 37 0,0
18.06.2019 12:00:00 26,8 17,0 28,4 21,1 10 5 16 9 SSE 1013,5 19 56 0,0
18.06.2019 11:00:00 24,3 16,0 26,9 21,0 9 5 16 9 S 1014,2 35 24 0,0
18.06.2019 10:00:00 23,0 15,3 25,6 21,1 6 3 13 7 S 1014,5 30 48 0,0
18.06.2019 09:00:00 21,2 15,3 20,4 21,2 2 1 6 3 E 1015,0 20 47 0,0
18.06.2019 08:00:00 19,1 14,8 17,0 21,4 4 2 7 4 S 1015,2 31 38 0,0
18.06.2019 07:00:00 16,4 14,2 13,4 21,6 4 2 6 4 SSE 1015,5 32 36 0,0
18.06.2019 06:00:00 15,6 13,6 13,0 21,8 4 2 10 5 SSO 1015,5 28 0 0,0
18.06.2019 05:00:00 16,3 13,8 14,1 22,0 6 4 9 5 SE 1015,2 32 0 0,0
18.06.2019 04:00:00 17,0 14,1 13,8 22,2 4 2 6 4 S 1015,3 33 0 0,0
18.06.2019 03:00:00 17,5 13,6 14,5 22,4 3 2 6 4 S 1015,4 37 0 0,0
18.06.2019 02:00:00 17,9 13,8 14,8 22,5 5 3 8 4 ESE 1015,5 41 0 0,0
18.06.2019 01:00:00 19,1 14,6 15,2 22,7 7 4 9 5 SSE 1015,5 34 0 0,0
18.06.2019 00:00:00 19,4 14,6 15,6 22,8 5 3 7 4 OSO 1015,3 51 0 0,0
17.06.2019 23:00:00 20,3 14,2 16,2 22,9 0 0 2 1 N 1015,2 42 0 0,0
17.06.2019 22:00:00 22,6 13,4 17,9 22,9 0 0 5 3 N 1015,2 19 0 0,0
17.06.2019 21:00:00 26,0 12,4 25,7 22,8 5 3 14 8 E 1014,5 54 49 0,0
17.06.2019 20:00:00 26,9 12,9 30,0 22,6 8 5 18 10 NE 1014,2 39 60 0,0
17.06.2019 19:00:00 27,1 13,1 30,3 22,3 9 5 22 12 NNE 1014,0 46 52 0,0
17.06.2019 18:00:00 27,5 12,3 34,5 22,0 9 5 23 12 NNE 1014,2 42 60 0,0
17.06.2019 17:00:00 27,4 11,4 33,8 21,5 10 6 21 11 NNE 1014,6 48 60 0,0
17.06.2019 16:00:00 26,7 13,4 32,7 21,1 10 5 19 10 NE 1015,3 20 60 0,0
17.06.2019 15:00:00 26,7 13,8 32,4 20,6 8 4 15 8 NE 1015,8 20 60 0,0
17.06.2019 14:00:00 25,2 12,8 31,7 20,2 5 3 16 9 NNE 1016,2 35 60 0,0
17.06.2019 13:00:00 24,1 13,3 31,1 20,0 6 4 18 10 NNO 1016,7 37 60 0,0
17.06.2019 12:00:00 22,8 13,8 28,7 19,8 5 3 14 7 E 1017,1 20 60 0,0
17.06.2019 11:00:00 21,4 12,8 27,1 19,8 10 5 22 12 N 1017,4 35 60 0,0
17.06.2019 10:00:00 19,6 13,1 24,1 19,9 7 4 17 9 NNE 1017,9 24 60 0,0
17.06.2019 09:00:00 17,9 12,1 21,1 20,0 11 6 19 11 NNO 1018,1 27 60 0,0
17.06.2019 08:00:00 16,4 11,5 13,8 20,2 8 4 12 7 NNO 1018,2 20 60 0,0
17.06.2019 07:00:00 14,2 11,4 10,0 20,4 3 2 9 5 NNO 1018,4 39 34 0,0
17.06.2019 06:00:00 13,4 10,6 10,0 20,6 6 3 9 5 N 1018,5 38 0 0,0
17.06.2019 05:00:00 14,3 10,9 10,5 20,8 3 1 6 4 NE 1018,4 37 0 0,0
17.06.2019 04:00:00 16,3 10,8 13,7 20,9 4 2 9 5 E 1018,3 44 0 0,0
17.06.2019 03:00:00 16,5 11,0 13,4 21,1 4 2 14 8 N 1018,5 59 0 0,0
17.06.2019 02:00:00 18,2 10,8 16,3 21,3 11 6 24 13 NNO 1018,4 59 0 0,0
17.06.2019 01:00:00 19,1 10,9 17,6 21,4 16 9 26 14 NNO 1018,3 57 0 0,0
17.06.2019 00:00:00 19,5 11,3 17,9 21,6 18 10 25 14 NNO 1018,6 45 0 0,0
16.06.2019 23:00:00 20,0 11,5 18,2 21,6 15 8 23 12 NNO 1018,9 44 0 0,0
16.06.2019 22:00:00 20,4 11,9 18,9 21,7 16 8 25 14 N 1018,5 43 0 0,0
16.06.2019 21:00:00 22,0 12,0 22,2 21,6 16 8 30 16 N 1018,4 40 50 0,0
16.06.2019 20:00:00 23,1 11,8 25,9 21,4 21 11 34 18 N 1018,5 31 60 0,0
16.06.2019 19:00:00 24,0 11,7 28,0 21,2 19 10 31 17 N 1018,6 27 60 0,0
16.06.2019 18:00:00 23,8 11,5 28,8 20,9 20 11 32 18 N 1018,9 27 60 0,0
16.06.2019 17:00:00 23,8 11,5 29,5 20,5 23 12 37 20 N 1019,2 22 60 0,0
16.06.2019 16:00:00 23,4 11,4 29,1 20,1 22 12 37 20 N 1019,7 24 60 0,0
16.06.2019 15:00:00 22,9 11,9 27,3 19,7 19 10 36 20 N 1020,2 26 58 0,0
16.06.2019 14:00:00 22,1 11,5 28,1 19,3 20 11 37 20 NNO 1020,5 33 58 0,0
16.06.2019 13:00:00 21,1 10,9 25,2 19,1 18 10 33 18 N 1021,2 38 50 0,0
16.06.2019 12:00:00 20,3 12,0 23,4 18,9 18 10 32 18 N 1021,6 36 54 0,0
16.06.2019 11:00:00 19,4 11,2 24,0 18,9 18 10 29 16 N 1021,8 31 60 0,0
16.06.2019 10:00:00 18,6 11,9 22,5 19,0 17 9 29 15 N 1022,0 24 60 0,0
16.06.2019 09:00:00 16,8 11,9 18,7 19,1 16 8 23 12 N 1022,5 27 60 0,0
16.06.2019 08:00:00 14,2 11,7 11,5 19,2 8 5 11 6 NNO 1022,5 21 60 0,0
16.06.2019 07:00:00 11,9 11,4 9,7 19,4 0 0 3 2 N 1022,6 10 12 0,0
16.06.2019 06:00:00 11,7 11,2 8,9 19,6 0 0 4 2 N 1022,3 8 0 0,0
16.06.2019 05:00:00 11,9 11,0 9,5 19,7 0 0 4 2 N 1022,1 12 0 0,0
16.06.2019 04:00:00 12,4 11,3 10,0 19,9 2 1 7 4 SE 1022,1 20 0 0,0
16.06.2019 03:00:00 13,0 11,1 10,6 20,0 2 1 10 5 ONO 1022,0 37 0 0,0
16.06.2019 02:00:00 13,8 11,5 11,9 20,1 7 4 10 6 NO 1021,8 43 0 0,2
16.06.2019 01:00:00 14,8 12,7 13,3 20,2 5 3 10 5 ONO 1021,6 41 0 0,0
16.06.2019 00:00:00 16,1 14,6 15,0 20,2 0 0 6 3 N 1021,4 35 0 0,0
15.06.2019 23:00:00 16,4 14,8 15,2 20,4 5 3 13 7 N 1021,3 19 0 0,2
15.06.2019 22:00:00 17,0 14,5 15,7 20,3 3 1 6 3 NO 1020,3 60 0 0,2
15.06.2019 21:00:00 17,4 13,7 17,1 20,3 3 2 11 6 E 1019,6 60 0 0,0
15.06.2019 20:00:00 18,2 13,7 18,4 20,3 6 3 10 5 SE 1019,3 60 23 0,0
15.06.2019 19:00:00 19,7 14,1 21,4 20,3 5 3 8 4 SE 1019,2 55 46 0,0
15.06.2019 18:00:00 17,9 14,0 15,3 20,4 2 1 21 12 NNO 1018,8 49 38 0,0
15.06.2019 17:00:00 15,4 14,3 14,7 20,5 15 8 26 14 E 1017,9 19 0 4,3
15.06.2019 16:00:00 15,3 14,0 14,3 20,5 24 13 45 24 NO 1019,5 2,8 0 5,8
15.06.2019 15:00:00 15,8 14,3 13,9 20,0 26 14 76 41 O 1017,0 0,4 0 16,0
15.06.2019 14:00:00 21,6 13,5 22,6 19,7 17 9 29 16 N 1015,7 56 14 0,0
15.06.2019 13:00:00 22,4 14,0 25,2 19,5 16 8 26 14 N 1015,8 32 21 0,0
15.06.2019 12:00:00 21,3 14,5 25,8 19,3 11 6 21 11 N 1016,9 60 48 0,0
15.06.2019 11:00:00 20,5 14,4 23,9 19,3 8 4 15 8 NNE 1017,1 29 29 0,0
15.06.2019 10:00:00 18,7 15,2 20,2 19,3 3 1 8 5 N 1017,4 40 0 0,0
15.06.2019 09:00:00 17,3 14,9 17,4 19,4 3 1 9 5 O 1017,5 20 20 0,0
15.06.2019 08:00:00 16,2 14,6 15,3 19,5 4 2 7 4 O 1016,8 30 24 0,0
15.06.2019 07:00:00 15,3 14,8 14,1 19,6 4 2 6 4 NNO 1016,2 20 0 0,0
15.06.2019 06:00:00 15,0 14,2 13,6 19,7 3 2 5 3 N 1016,0 20 0 0,0
15.06.2019 05:00:00 15,4 14,4 14,5 19,8 3 1 10 5 ESE 1015,7 12 0 0,4
15.06.2019 04:00:00 15,3 14,2 14,7 19,9 5 3 11 6 ESE 1015,5 46 0 0,2
15.06.2019 03:00:00 15,8 14,8 15,2 20,0 8 5 16 8 NE 1015,6 38 0 1,2
15.06.2019 02:00:00 15,9 14,9 15,0 20,1 7 4 14 8 SE 1014,7 20 0 0,8
15.06.2019 01:00:00 16,1 15,0 15,4 20,2 11 6 43 23 ONO 1015,1 5 0 7,3
15.06.2019 00:00:00 18,3 14,4 17,8 20,3 16 9 23 13 ONO 1013,2 43 0 0,0
14.06.2019 23:00:00 18,9 15,2 17,8 20,3 9 5 11 6 NO 1012,6 40 0 0,0
14.06.2019 22:00:00 19,1 15,4 18,2 20,3 6 3 10 6 NE 1010,9 39 0 0,0
14.06.2019 21:00:00 19,7 15,1 18,8 20,2 7 4 27 15 N 1010,3 44 0 0,0
14.06.2019 20:00:00 20,9 14,8 20,8 20,1 11 6 29 16 N 1009,3 45 2 0,0
14.06.2019 19:00:00 20,3 14,2 21,3 19,9 17 9 27 15 N 1009,2 49 0 0,0
14.06.2019 18:00:00 20,6 15,8 22,4 19,6 14 8 22 12 NO 1010,0 25 4 0,0
14.06.2019 17:00:00 21,3 15,8 23,7 19,3 11 6 18 10 ONO 1010,4 32 40 0,0
14.06.2019 16:00:00 21,4 14,5 25,5 19,2 6 3 15 8 NNO 1011,5 20 41 0,0
14.06.2019 15:00:00 19,4 14,4 24,3 19,1 8 4 15 8 NO 1012,3 21 38 0,0
14.06.2019 14:00:00 17,1 14,6 15,2 19,1 10 5 17 9 N 1013,5 19 4 0,0
14.06.2019 13:00:00 15,3 14,3 14,7 19,2 5 3 11 6 OSO 1015,7 7 0 0,8
14.06.2019 12:00:00 15,3 14,2 14,2 19,3 8 4 15 8 ONO 1015,4 6 0 2,2
14.06.2019 11:00:00 15,3 13,7 14,4 19,4 8 4 19 11 E 1015,5 6 0 1,8
14.06.2019 10:00:00 16,2 13,1 14,4 19,5 12 7 21 11 E 1016,4 11 0 0,4
14.06.2019 09:00:00 16,4 12,9 14,4 19,6 6 4 22 12 ESE 1016,3 22 0 0,6
14.06.2019 08:00:00 17,7 11,3 15,4 19,7 4 2 9 5 S 1015,3 26 0 0,0
14.06.2019 07:00:00 16,9 10,0 14,1 19,8 4 2 11 6 ONO 1013,3 22 0 0,0
14.06.2019 06:00:00 17,3 8,7 15,1 20,0 2 1 11 6 OSO 1012,7 54 0 0,0
14.06.2019 05:00:00 18,2 8,5 15,5 20,2 0 0 9 5 N 1012,5 45 0 0,0
14.06.2019 04:00:00 17,7 9,1 15,1 20,3 4 2 12 6 E 1012,3 50 0 0,0
14.06.2019 03:00:00 17,7 9,3 15,3 20,5 8 4 14 8 SE 1012,5 44 0 0,0
14.06.2019 02:00:00 18,5 8,7 15,4 20,7 4 2 22 12 NE 1012,9 60 0 0,0
14.06.2019 01:00:00 20,1 8,1 16,2 20,8 10 6 19 10 SSE 1012,8 60 0 0,0
14.06.2019 00:00:00 20,8 7,1 16,8 21,0 8 4 23 12 S 1012,8 59 0 0,0
13.06.2019 23:00:00 22,0 5,4 18,9 21,1 16 8 21 12 S 1012,5 60 0 0,0
13.06.2019 22:00:00 22,1 5,9 17,7 21,1 11 6 15 8 S 1012,3 60 0 0,0
13.06.2019 21:00:00 24,7 4,4 23,6 21,1 13 7 44 24 S 1011,5 53 49 0,0
13.06.2019 20:00:00 26,1 2,1 27,3 21,0 25 14 50 27 S 1011,0 29 60 0,0
13.06.2019 19:00:00 26,8 4,5 29,8 20,8 23 12 50 27 S 1010,8 27 60 0,0
13.06.2019 18:00:00 26,9 4,0 30,3 20,5 29 16 48 26 S 1011,2 30 60 0,0
13.06.2019 17:00:00 26,5 6,0 30,3 20,0 29 15 49 26 S 1011,5 29 60 0,0
13.06.2019 16:00:00 26,4 5,9 30,5 19,6 18 10 42 23 S 1012,1 31 60 0,0
13.06.2019 15:00:00 25,2 3,2 30,1 19,1 24 13 44 24 S 1012,8 36 60 0,0
13.06.2019 14:00:00 24,4 5,2 30,2 18,7 13 7 31 17 S 1013,4 25 60 0,0
13.06.2019 13:00:00 23,5 5,4 29,0 18,3 14 8 25 13 SSE 1013,9 49 60 0,0
13.06.2019 12:00:00 22,2 6,8 26,4 18,1 11 6 21 11 SSE 1014,4 52 60 0,0
13.06.2019 11:00:00 20,2 8,2 26,0 18,1 9 5 17 9 SSE 1015,0 51 60 0,0
13.06.2019 10:00:00 18,0 7,7 22,4 18,2 5 3 11 6 SSO 1015,6 28 60 0,0
13.06.2019 09:00:00 15,9 8,4 18,8 18,3 6 4 10 5 S 1015,7 28 60 0,0
13.06.2019 08:00:00 13,0 8,1 9,0 18,5 4 2 6 3 S 1015,8 34 60 0,0
13.06.2019 07:00:00 9,9 8,2 6,4 18,8 4 2 5 3 S 1016,0 19 34 0,0
13.06.2019 06:00:00 9,3 7,4 6,4 18,9 0 0 11 6 N 1015,7 20 0 0,0
13.06.2019 05:00:00 10,4 7,6 7,3 19,2 8 4 10 5 SSE 1015,5 20 0 0,0
13.06.2019 04:00:00 10,8 8,0 7,4 19,4 6 3 8 5 SE 1015,6 19 0 0,0
13.06.2019 03:00:00 11,7 8,4 8,1 19,6 4 2 8 4 S 1015,7 46 0 0,0
13.06.2019 02:00:00 13,5 8,1 9,5 19,8 6 3 10 5 S 1015,5 59 0 0,0
13.06.2019 01:00:00 13,8 7,1 10,0 19,9 7 4 9 5 SSO 1015,4 60 0 0,0

tt = Temperatura
td = dewpoint
tt 5cm = Temperatura 5cm
tt -20cm = Temperatura -20cm
ff = velocità del vento
fx = gusts
dd = direzione del vento
ppp = reduced air pressure
vv = visibility
sd = ore di luce
rr = precipitazioni

Stazioni seguenti

WeatherPro
AMSI
MeteoEarth